TimeCST,TemperatureF,Dew PointF,Humidity,Sea Level PressureIn,VisibilityMPH,Wind Direction,Wind SpeedMPH,Gust SpeedMPH,PrecipitationIn,Events,Conditions,WindDirDegrees,DateUTC
6:00 AM,68.0,62.6,83,30.07,8.0,Calm,Calm,-,N/A,,Clear,0,2012-11-13 12:00:00
6:45 AM,68.0,62.6,83,30.07,8.0,NNE,17.3,-,N/A,,Clear,30,2012-11-13 12:45:00
8:41 AM,71.6,62.6,73,30.11,8.0,Calm,Calm,-,N/A,,Clear,0,2012-11-13 14:41:00
8:48 AM,73,62,59,30.04,5,SE,4.5,,,,Haze,140,2012-11-13 14:48:00
9:56 AM,77.0,62.6,61,30.11,8.0,Calm,Calm,-,N/A,,Clear,0,2012-11-13 15:56:00
10:40 AM,80.6,60.8,51,30.11,8.0,Calm,Calm,-,N/A,,Clear,0,2012-11-13 16:40:00
11:40 AM,82.4,62.6,51,30.08,8.0,NNE,11.5,-,N/A,,Clear,30,2012-11-13 17:40:00
11:50 AM,88,59,28,29.99,5,East,4.5,,,,Haze,90,2012-11-13 17:50:00
12:40 PM,82.4,62.6,51,30.03,8.0,NNE,11.5,-,N/A,,Scattered Clouds,30,2012-11-13 18:40:00
1:40 PM,86.0,62.6,45,30.00,8.0,NNE,11.5,-,N/A,,Scattered Clouds,30,2012-11-13 19:40:00
2:43 PM,87.8,62.6,43,29.97,8.0,Calm,Calm,-,N/A,,Scattered Clouds,0,2012-11-13 20:43:00
2:50 PM,94,65,29,29.85,6,NE,2.2,,,,Haze,50,2012-11-13 20:50:00
3:42 PM,87.8,62.6,43,29.94,8.0,Calm,Calm,-,N/A,,Mostly Cloudy,0,2012-11-13 21:42:00
4:44 PM,86.0,62.6,45,29.93,8.0,Calm,Calm,-,N/A,,Mostly Cloudy,0,2012-11-13 22:44:00
5:40 PM,84.2,66.2,55,29.95,6.0,SW,9.2,-,N/A,,Mostly Cloudy,230,2012-11-13 23:40:00
5:48 PM,85,72,58,29.83,5,SE,4.5,,,,Haze,140,2012-11-13 23:48:00
6:42 PM,78.8,69.8,74,29.97,6.0,SW,6.9,-,N/A,,Mostly Cloudy,230,2012-11-14 00:42:00
7:42 PM,77.0,68.0,74,29.99,5.0,WNW,9.2,-,N/A,,Scattered Clouds,290,2012-11-14 01:42:00
8:44 PM,73.4,69.8,88,30.03,4.0,WNW,6.9,-,N/A,,Scattered Clouds,300,2012-11-14 02:44:00
8:49 PM,77,73,84,29.92,2,NW,4.5,,,,Haze,320,2012-11-14 02:49:00
11:49 PM,75,73,90,29.96,2,NE,2.2,,,,Haze,50,2012-11-14 05:49:00